Back to catalog

ARIANE 5 DEB

SYLDA

AliveHEO
NORAD 46115·DEBRIS·🇫🇷 France

Launched Aug 15, 2020 from Guiana Space Centre

Loading…

Next Passes (next 24 hours)

TLE

FreshSource: Space-Track

Epoch: Sep 14, 2026, 08:04 UTC

1 46115U 20056D   26257.33634342  .00007902  00000-0  32681-2 0  9990
2 46115   6.3497  84.1443 6540971 235.5451  45.0388  3.23355701 59796

Track ARIANE 5 DEB in real time with AllMySat

Download on the App Store